Regional Weather Roundup
Issued by NWS Wakefield, VA

Home | Current Version | Previous Version | Text Only | Print | Product List | Glossary On
Versions: 1 2 3 4 5 6 7 8 9 10 11 12 13 14 15 16 17 18 19 20 21 22 23 24 25 26 27 28 29 30 31 32 33 34 35 36 37 38 39 40 41 42 43 44 45 46 47 48
000
ASUS41 KAKQ 070110
RWRAKQ

REGIONAL WEATHER ROUNDUP
NATIONAL WEATHER SERVICE WAKEFIELD VA
800 PM EST FRI MAR 06 2015

Note: "fair" indicates few or no clouds below 12,000 feet with no
significant weather and/or obstructions to visibility. * = Denotes
station may not report precipitation (e.g., rain,snow,etc.),
thunder or fog.

VAZ042-051-052>054-056-070200-
NORTHERN VIRGINIA

CITY           SKY/WX    TMP DP  RH WIND       PRES   REMARKS
WASH NATIONAL  PTCLDY    26   9  48 S7        30.45F
DULLES         PTCLDY    14   8  77 CALM      30.44R
FORT BELVOIR   CLEAR     19  13  79 MISG      30.45S
QUANTICO       PTCLDY    21  14  74 NW7       30.48R
FREDERICKSBRG* CLEAR     19  13  76 CALM      30.46R
STAFFORD*      PTCLDY    18  14  84 CALM      30.49S
WARRENTON      PTCLDY    16  15  97 CALM      30.43R
CULPEPER*      CLEAR     16  10  79 CALM      30.44S
MANASSAS*      CLEAR     16  12  86 CALM      30.45S
LEESBURG*      PTCLDY    21  14  73 S3        30.44R
WINCHESTER     PTCLDY    18   7  62 CALM      30.39S
FRONT ROYAL*   FAIR      21   9  58 CALM      30.38S
LURAY*         FAIR      16  12  86 CALM      30.39R
$$

VAZ048-049-060>072-079>083-070200-
CENTRAL AND SOUTH CENTRAL VIRGINIA

CITY           SKY/WX    TMP DP  RH WIND       PRES   REMARKS
RICHMOND       PTCLDY    25  14  63 CALM      30.45S
CHESTERFIELD*  FAIR      25   7  46 CALM      30.46S
PETERSBURG*    CLEAR     23  19  84 CALM      30.46S
HANOVER        CLEAR     20  15  81 E3        30.45F
TAPPAHANNOCK*  CLEAR     19  12  74 CALM      30.46F
QUINTON*       FAIR      23  15  71 CALM      30.46S
CHARLOTTSVILLE CLEAR     23   9  55 CALM      30.41R
GORDONSVILLE*  FAIR      17  13  84 CALM      30.43S
ORANGE*        CLEAR     18  10  73 CALM      30.45S
LOUISA*        CLEAR     16  12  86 CALM      30.42R
BUMPASS*       FAIR      19  13  77 CALM      30.44S
FARMVILLE*     CLEAR     26  11  52 CALM      30.06F
CREWE*         FAIR      24  15  70 CALM      30.44R
FORT PICKETT*  FAIR      24  15  67 CALM      30.43F
CHASE CITY*    FAIR      28  20  71 CALM      30.42F
CLARKSVILLE*   FAIR      28  18  64 CALM      30.43S
SOUTH HILL*    CLEAR     26  15  65 CALM      30.49F
LAWRENCEVILLE* FAIR      26  17  68 CALM      30.43F
EMPORIA*       CLEAR     27  18  69 CALM      30.48S
$$

VAZ088>098-070200-
SOUTHEAST VIRGINIA

CITY           SKY/WX    TMP DP  RH WIND       PRES   REMARKS
NORFOLK        CLEAR     25  13  60 N7        30.47R
VIRGINIA BEACH PTCLDY    24  15  68 NW7       30.46R
NORFOLK NAVAL  PTCLDY    28  15  58 N9        30.47S
WEST POINT*    CLEAR     26  15  63 CALM      30.49S
SALUDA*        FAIR      22  11  62 NE3       30.47S
NEWPORT NEWS   CLEAR     25  16  68 E5        30.46F
LANGLEY AFB    CLEAR     23  16  74 NE6       30.46S
FORT EUSTIS    CLEAR     25  16  66 VRB3      30.44F
WILLIAMSBURG*    N/A    N/A N/A N/A MISG      30.46S
HR EXEC AP*    FAIR     N/A N/A N/A MISG        N/A
FRANKLIN*      CLEAR     26  18  72 NE3       30.46F
WAKEFIELD      CLEAR     25  17  72 CALM      30.46F
$$

VAZ020-022-025-037-045-070200-
WEST CENTRAL AND SOUTHWEST VIRGINIA

CITY           SKY/WX    TMP DP  RH WIND       PRES   REMARKS
STAUNTON*      CLEAR     16   9  75 CALM      30.38S
WAYNESBORO*    FAIR      20  14  77 SW3       30.35R
HOT SPRINGS VA CLEAR     18  14  84 W8        30.19R
LYNCHBURG      CLEAR     23  13  65 CALM      30.41R
DANVILLE       CLEAR     28  14  55 E3        30.43R
SOUTH BOSTON*  FAIR      28  13  55 CALM      30.43S
MARTINSVILLE   CLEAR     28  19  71 CALM      30.42S
ROANOKE        CLEAR     28  15  58 E3        30.40R
BLACKSBURG     CLEAR     23  16  75 CALM      30.35S
DUBLIN*        CLEAR     28  20  72 CALM      30.34S
MARION*        CLEAR     28  15  58 W9        30.34S
HILLSVILLE*    CLEAR     28  13  54 CALM      30.31R
RICHLANDS*     FAIR      26  16  65 SW6       30.32R
WISE*          CLEAR     28  14  54 SW7       30.34R
ABINGDON*      CLEAR     30  16  57 CALM      30.36R
$$

MDZ021>025-VAZ099-100-070200-
SOUTHERN MARYLAND AND THE DELMARVA PENINSULA

CITY           SKY/WX    TMP DP  RH WIND       PRES   REMARKS
PATUXENT RIVER PTCLDY    14  11  87 CALM      30.46F
BAY BRIDGE APT   N/A     19  12  73 S3        30.46F
LEONARDTOWN      N/A     19  14  79 CALM      30.47
DOVER          PTCLDY    15  10  77 SW3       30.45F
GEORGETOWN     CLEAR     16  10  77 CALM      30.46F
EASTON         CLEAR     18  10  73 CALM      30.49F
CAMBRIDGE      PTCLDY    19  16  86 CALM      30.46F
SALISBURY      CLEAR     21  11  65 NW5       30.45F
OCEAN CITY     CLEAR     15  11  83 N3        30.46F
WALLOPS ISLAND CLEAR     22  16  78 N5        30.47S
ACCOMACK*      CLEAR     23  18  80 CALM      30.46S
$$

NCZ012>017-030>032-070200-
NORTH CENTRAL AND EASTERN NORTH CAROLINA

CITY           SKY/WX    TMP DP  RH WIND       PRES   REMARKS
ROANOKE RAPIDS FAIR      28  19  69 CALM      30.45S
RALEIGH        PTCLDY    28  16  60 CALM      30.43S
ELIZABETH CITY PTCLDY    26  18  71 N10       30.46R WCI  16
AHOSKIE*       CLEAR     28  18  67 CALM      30.46S
EDENTON*       PTCLDY    28  15  57 N6        30.46R
CURRITUCK*     PTCLDY    27  19  72 N5        30.46R
KILL DEVIL HLS MOCLDY    29  23  80 N9G16     30.41S
MANTEO         MOCLDY    28  23  80 N15G23    30.43S WCI  17
CAPE HATTERAS  CLOUDY    31  28  89 N13G23    30.40S WCI  21
TARBORO*       FAIR      30  20  64 CALM      30.46S
GOLDSBORO      CLEAR     32  22  66 NE5       30.43R
WASHINGTON     PTCLDY    31  19  60 CALM      30.45S
GREENVILLE     CLEAR     30  19  64 N5        30.45R
NEW BERN       CLEAR     32  20  61 NE6       30.45R
WILMINGTON     PTCLDY    36  22  56 N7        30.44R
$$

VAZ048-070200-
ELSEWHERE

CITY           SKY/WX    TMP DP  RH WIND       PRES   REMARKS
HARRISBURG PA  PTCLDY    14   5  67 SE5       30.40F
BALTIMORE      MOCLDY    18  11  74 SE7       30.43F
ANNAPOLIS      CLEAR     21  10  62 CALM      30.46F
ANDREWS AFB    PTCLDY    15  12  85 SE7       30.42F
PHILADELPHIA   MOCLDY    20   8  60 W9        30.44F
HENDERSON NC   CLEAR     28  13  52 CALM      30.43S
GREENSBORO     PTCLDY    32  16  51 E3        30.39R
ROCKY MOUNT    CLEAR     27  20  75 CALM      30.45R
$$

VAZ100-070200-
MARINE

STATION/POSITION TIME  TEMP    WIND        PRES    WAVE   SWELL
                       AIR SEA DIR/SP/G            HT/PER HT/PER
                 (UTC) (F)     (DEG/KT/KT) (MB)    (FT/S) (FT/S)
BRANDYWINE LGT   0100   23 31  310/  7/ 11 1031.6F
CAPE MAY NJ      0100   22 34  310/  5/  6 1031.3R
LEWES DE         0100   21 30  280/  6/  6 1031.4F
15NM E FENWICK I 0100   23 36              1030.9F   4/ 7
OCEAN-CITY-INLET 0100   22 32   70/  3/  5 1031.1S
WACHAPREAGUE VA  0100   23 37   CALM  /  2 1031.5S
THOMAS POINT MD  0100           70/  5/  6   N/A
COVE POINT MD    0100   21      CALM  /  2 1031.5F
SOLOMONS ISLAND  0100      34                N/A
BISHOPS HEAD MD  0100   22 34   10/  3/  4 1031.1R
CAMBRIDGE MD     0100   20 32  200/  2/  2 1031.5F
LEWISETTA VA     0100   22 33              1031.5F
RAPPAHANNOCK LGT 0100          350/  8/  9 1032.1F
STINGRAY PT      0100   24     360/  8/ 10   N/A
YORK RVR RNG VA  0100   25      50/  9/ 10 1030.3R
YORKTOWN VA      0100   25 35   60/  6/  7 1031.5F
DOMINION TERM VA 0100   26      40/  2/  5 1031.8F
KIPTOPEKE VA     0100      39   10/  5/  7   N/A
CHES BAY BRIDGE  0100   25 34  360/  9/ 11 1031.3S
CAPE HENRY VA    0100   25     350/ 11/ 13 1030.2R
CHESAPEAKE LGHT  0000   26      10/ 13/ 14 1031.6R
WILLOUBY STN VA  0100   25      20/  8/  9 1032.2S
S CRANEY ISL VA  0100           10/  9/ 10 1031.9R
CAPE HENRY BUOY  0000      35                N/A     5/ 7
1ST LANDING BUOY 0100   26     350/ 12/ 14 1031.2R
OFFSHORE WE BUOY 0100      36                N/A     6/ 7   5/ 7
64NM E OF VA BCH 0100   36 50  360/ 17/ 23 1028.4F   7/ 8   3/ 9
DUCK PIER NC     0100   28 35   10/ 15/ 19 1029.4R
44100 DUCK FRF   0000      37                N/A     7/ 9   2/11
44056 DUCK FRF   0100      35                N/A     6/ 7   2/11
OREGON INLET NC  0100   29 38  350/ 14/ 19 1029.9R
HATTERAS NC      0100   32 42  360/ 23/ 25 1029.7S
CAPE LOOKOUT NC  0000          360/ 16/ 19 1029.4R
$$


USA.gov is the U.S. government's official web portal to all federal, state and local government web resources and services.